H1 CPF 1 NER 2022 3 2 9 5611 glonass133 H2 1403201 9133 40001 2022 3 2 0 0 0 2022 3 5 23 45 0 900 1 1 0 0 0 H9 10 0 59640 0.00000 0 23196917.581 8658911.680 6095110.057 10 0 59640 900.00000 0 23789346.219 8705124.333 2913117.741 10 0 59640 1800.00000 0 24014727.966 8565518.452 -325527.299 10 0 59640 2700.00000 0 23848611.561 8292058.310 -3557839.329 10 0 59640 3600.00000 0 23279621.373 7941099.966 -6720952.526 10 0 59640 4500.00000 0 22310035.280 7570778.972 -9753350.365 10 0 59640 5400.00000 0 20955805.361 7238331.233 -12596068.058 10 0 59640 6300.00000 0 19246020.125 6997461.496 -15193843.938 10 0 59640 7200.00000 0 17221830.718 6895871.694 -17496196.729 10 0 59640 8100.00000 0 14934886.150 6973054.425 -19458407.549 10 0 59640 9000.00000 0 12445343.055 7258445.347 -21042387.548 10 0 59640 9900.00000 0 9819533.430 7770012.848 -22217414.567 10 0 59640 10800.00000 0 7127387.616 8513344.680 -22960725.030 10 0 59640 11700.00000 0 4439719.824 9481270.216 -23257950.244 10 0 59640 12600.00000 0 1825488.913 10654034.321 -23103389.280 10 0 59640 13500.00000 0 -650852.246 12000015.716 -22500113.804 10 0 59640 14400.00000 0 -2931809.489 13476959.933 -21459903.323 10 0 59640 15300.00000 0 -4969001.172 15033675.417 -20003012.468 10 0 59640 16200.00000 0 -6724924.798 16612122.034 -18157774.952 10 0 59640 17100.00000 0 -8174264.337 18149804.842 -15960051.859 10 0 59640 18000.00000 0 -9304685.174 19582373.138 -13452534.850 10 0 59640 18900.00000 0 -10117085.052 20846316.136 -10683917.545 10 0 59640 19800.00000 0 -10625292.023 21881642.481 -7707950.922 10 0 59640 20700.00000 0 -10855223.427 22634431.294 -4582400.921 10 0 59640 21600.00000 0 -10843542.509 23059147.693 -1367928.349 10 0 59640 22500.00000 0 -10635870.299 23120625.526 1873087.207 10 0 59640 23400.00000 0 -10284628.931 22795633.854 5077756.524 10 0 59640 24300.00000 0 -9846608.101 22073961.176 8183899.385 10 0 59640 25200.00000 0 -9380357.823 20958971.537 11131249.068 10 0 59640 26100.00000 0 -8943517.899 19467608.778 13862619.172 10 0 59640 27000.00000 0 -8590197.003 17629848.236 16325010.327 10 0 59640 27900.00000 0 -8368512.103 15487618.193 18470635.539 10 0 59640 28800.00000 0 -8318392.048 13093235.483 20257844.570 10 0 59640 29700.00000 0 -8469738.037 10507419.712 21651929.876 10 0 59640 30600.00000 0 -8841018.651 7796967.908 22625798.936 10 0 59640 31500.00000 0 -9438358.994 5032185.510 23160500.254 10 0 59640 32400.00000 0 -10255162.839 2284179.500 23245593.149 10 0 59640 33300.00000 0 -11272284.525 -377874.852 22879354.173 10 0 59640 34200.00000 0 -12458744.394 -2889380.916 22068816.016 10 0 59640 35100.00000 0 -13772958.870 -5192772.206 20829637.711 10 0 59640 36000.00000 0 -15164434.760 -7239667.294 19185808.034 10 0 59640 36900.00000 0 -16575857.676 -8992639.016 17169187.099 10 0 59640 37800.00000 0 -17945487.799 -10426524.823 14818894.211 10 0 59640 38700.00000 0 -19209762.896 -11529224.064 12180553.073 10 0 59640 39600.00000 0 -20305999.380 -12301949.313 9305408.391 10 0 59640 40500.00000 0 -21175077.643 -12758921.760 6249330.683 10 0 59640 41400.00000 0 -21763998.127 -12926524.130 3071728.449 10 0 59640 42300.00000 0 -22028199.663 -12841947.471 -165610.778 10 0 59640 43200.00000 0 -21933541.490 -12551389.825 -3399727.535 10 0 59640 44100.00000 0 -21457864.334 -12107883.813 -6567721.462 10 0 59640 45000.00000 0 -20592063.831 -11568846.019 -9607981.372 10 0 59640 45900.00000 0 -19340630.199 -10993452.927 -12461389.599 10 0 59640 46800.00000 0 -17721630.738 -10439955.426 -15072476.417 10 0 59640 47700.00000 0 -15766135.431 -9963046.352 -17390501.467 10 0 59640 48600.00000 0 -13517109.424 -9611393.089 -19370440.858 10 0 59640 49500.00000 0 -11027818.566 -9425439.910 -20973860.818 10 0 59640 50400.00000 0 -8359814.610 -9435573.103 -22169661.082 10 0 59640 51300.00000 0 -5580584.060 -9660726.292 -22934674.163 10 0 59640 52200.00000 0 -2760958.362 -10107484.628 -23254109.501 10 0 59640 53100.00000 0 27607.010 -10769725.384 -23121834.522 10 0 59640 54000.00000 0 2715772.060 -11628809.909 -22540487.851 10 0 59640 54900.00000 0 5238957.286 -12654318.771 -21521422.961 10 0 59640 55800.00000 0 7539785.179 -13805299.167 -20084483.708 10 0 59640 56700.00000 0 9570217.896 -15031972.306 -18257616.270 10 0 59640 57600.00000 0 11293303.478 -16277829.244 -16076324.972 10 0 59640 58500.00000 0 12684459.182 -17482027.324 -13582982.415 10 0 59640 59400.00000 0 13732239.871 -18581986.802 -10826007.088 10 0 59640 60300.00000 0 14438560.784 -19516078.706 -7858924.112 10 0 59640 61200.00000 0 14818366.683 -20226291.052 -4739327.247 10 0 59640 62100.00000 0 14898762.583 -20660761.276 -1527762.138 10 0 59640 63000.00000 0 14717643.708 -20776068.309 1713447.567 10 0 59640 63900.00000 0 14321883.295 -20539187.629 4921408.309 10 0 59640 64800.00000 0 13765155.361 -19929026.762 8033875.420 10 0 59640 65700.00000 0 13105484.803 -18937476.248 10990458.941 10 0 59640 66600.00000 0 12402628.534 -17569931.386 13733792.921 10 0 59640 67500.00000 0 11715398.304 -15845262.187 16210645.691 10 0 59640 68400.00000 0 11099038.159 -13795232.001 18372949.764 10 0 59640 69300.00000 0 10602767.006 -11463388.269 20178731.659 10 0 59640 70200.00000 0 10267589.741 -8903470.690 21592924.086 10 0 59640 71100.00000 0 10124468.999 -6177402.069 22588045.177 10 0 59640 72000.00000 0 10192934.512 -3352944.408 23144731.945 10 0 59640 72900.00000 0 10480188.723 -501116.528 23252117.909 10 0 59640 73800.00000 0 10980746.645 2306520.644 22908047.678 10 0 59640 74700.00000 0 11676625.712 5000599.340 22119124.103 10 0 59640 75600.00000 0 12538078.366 7516588.178 20900586.756 10 0 59640 76500.00000 0 13524837.505 9797234.308 19276023.432 10 0 59640 77400.00000 0 14587823.276 11794703.518 17276919.537 10 0 59640 78300.00000 0 15671240.244 13472329.725 14942053.283 10 0 59640 79200.00000 0 16714977.231 14805901.329 12316747.601 10 0 59640 80100.00000 0 17657209.085 15784430.991 9451992.727 10 0 59640 81000.00000 0 18437090.672 16410377.031 6403456.087 10 0 59640 81900.00000 0 18997429.122 16699307.658 3230398.570 10 0 59640 82800.00000 0 19287220.882 16679022.700 -5481.445 10 0 59640 83700.00000 0 19263945.585 16388170.591 -3241253.347 10 0 59640 84600.00000 0 18895518.836 15874419.840 -6413984.722 10 0 59640 85500.00000 0 18161820.438 15192263.135 -9461972.027 10 0 59641 0.00000 0 17055732.628 14400548.009 -12325946.538 10 0 59641 900.00000 0 15583643.011 13559838.954 -14950232.799 10 0 59641 1800.00000 0 13765391.829 12729724.446 -17283832.623 10 0 59641 2700.00000 0 11633663.168 11966181.923 -19281418.403 10 0 59641 3600.00000 0 9232846.582 11319113.459 -20904212.503 10 0 59641 4500.00000 0 6617415.907 10830155.869 -22120737.454 10 0 59641 5400.00000 0 3849892.757 10530857.557 -22907422.602 10 0 59641 6300.00000 0 998479.218 10441298.593 -23249056.107 10 0 59641 7200.00000 0 -1865542.001 10569211.666 -23139074.167 10 0 59641 8100.00000 0 -4670532.439 10909640.368 -22579682.534 10 0 59641 9000.00000 0 -7347235.267 11445148.703 -21581808.501 10 0 59641 9900.00000 0 -9831412.209 12146572.577 -20164884.650 10 0 59641 10800.00000 0 -12066271.497 12974281.394 -18356468.744 10 0 59641 11700.00000 0 -14004587.037 13879896.552 -16191707.073 10 0 59641 12600.00000 0 -15610421.718 14808394.504 -13712651.571 10 0 59641 13500.00000 0 -16860384.357 15700505.950 -10967443.677 10 0 59641 14400.00000 0 -17744369.065 16495310.203 -8009380.520 10 0 59641 15300.00000 0 -18265747.344 17132915.547 -4895881.364 10 0 59641 16200.00000 0 -18441006.067 17557112.639 -1687374.252 10 0 59641 17100.00000 0 -18298847.646 17717889.046 1553875.625 10 0 59641 18000.00000 0 -17878791.136 17573698.756 4764972.959 10 0 59641 18900.00000 0 -17229333.951 17093390.734 7883611.258 10 0 59641 19800.00000 0 -16405752.235 16257714.831 10849279.973 10 0 59641 20700.00000 0 -15467632.946 15060341.139 13604436.246 10 0 59641 21600.00000 0 -14476241.885 13508349.223 16095618.702 10 0 59641 22500.00000 0 -13491838.567 11622165.773 18274481.853 10 0 59641 23400.00000 0 -12571050.868 9434952.339 20098731.331 10 0 59641 24300.00000 0 -11764419.738 6991467.551 21532942.249 10 0 59641 25200.00000 0 -11114216.935 4346450.046 22549245.288 10 0 59641 26100.00000 0 -10652627.288 1562588.214 23127867.541 10 0 59641 27000.00000 0 -10400371.679 -1291840.114 23257517.968 10 0 59641 27900.00000 0 -10365828.560 -4145561.254 22935610.042 10 0 59641 28800.00000 0 -10544691.062 -6927025.932 22168317.155 10 0 59641 29700.00000 0 -10920174.398 -9567144.317 20970459.311 10 0 59641 30600.00000 0 -11463765.338 -12001923.136 19365222.717 10 0 59641 31500.00000 0 -12136482.766 -14174895.796 17383716.958 10 0 59641 32400.00000 0 -12890596.828 -16039244.958 15064377.542 10 0 59641 33300.00000 0 -13671734.719 -17559529.404 12452224.571 10 0 59641 34200.00000 0 -14421284.572 -18712943.292 9597991.356 10 0 59641 35100.00000 0 -15078996.029 -19490055.372 6557139.453 10 0 59641 36000.00000 0 -15585667.396 -19894997.444 3388779.093 10 0 59641 36900.00000 0 -15885805.206 -19945094.480 154516.282 10 0 59641 37800.00000 0 -15930142.970 -19669952.523 -3082750.580 10 0 59641 38700.00000 0 -15677911.570 -19110043.462 -6260060.448 10 0 59641 39600.00000 0 -15098764.234 -18314847.214 -9315620.891 10 0 59641 40500.00000 0 -14174273.636 -17340630.619 -12190016.044 10 0 59641 41400.00000 0 -12898936.858 -16247957.779 -14827367.014 10 0 59641 42300.00000 0 -11280644.946 -15099037.812 -17176421.463 10 0 59641 43200.00000 0 -9340596.458 -13955022.636 -19191550.897 10 0 59641 44100.00000 0 -7112657.923 -12873369.225 -20833636.277 10 0 59641 45000.00000 0 -4642197.521 -11905377.693 -22070824.885 10 0 59641 45900.00000 0 -1984440.197 -11094008.725 -22879144.314 10 0 59641 46800.00000 0 797587.625 -10472071.819 -23242962.279 10 0 59641 47700.00000 0 3635438.524 -10060859.868 -23155283.990 10 0 59641 48600.00000 0 6457851.315 -9869286.722 -22617882.031 10 0 59641 49500.00000 0 9193477.332 -9893563.087 -21641256.722 10 0 59641 50400.00000 0 11773613.156 -10117423.633 -20244428.127 10 0 59641 51300.00000 0 14134827.132 -10512894.988 -18454563.915 10 0 59641 52200.00000 0 16221371.474 -11041571.790 -16306450.262 10 0 59641 53100.00000 0 17987280.490 -11656346.676 -13841815.935 10 0 59641 54000.00000 0 19398068.661 -12303521.090 -11108522.439 10 0 59641 54900.00000 0 20431958.793 -12925207.801 -8159635.639 10 0 59641 55800.00000 0 21080589.919 -13461923.763 -5052396.729 10 0 59641 56700.00000 0 21349176.428 -13855263.818 -1847112.348 10 0 59641 57600.00000 0 21256112.678 -14050542.313 1394014.673 10 0 59641 58500.00000 0 20832040.584 -13999290.963 4608091.138 10 0 59641 59400.00000 0 20118420.099 -13661507.279 7732752.406 10 0 59641 60300.00000 0 19165663.352 -13007558.288 10707370.693 10 0 59641 61200.00000 0 18030911.323 -12019658.824 13474229.185 10 0 59641 62100.00000 0 16775546.897 -10692861.415 15979639.260 10 0 59641 63000.00000 0 15462548.916 -9035515.270 18174979.392 10 0 59641 63900.00000 0 14153798.385 -7069174.099 20017635.759 10 0 59641 64800.00000 0 12907449.747 -4827955.359 21471826.816 10 0 59641 65700.00000 0 11775477.204 -2357376.346 22509296.249 10 0 59641 66600.00000 0 10801498.689 287285.688 23109861.245 10 0 59641 67500.00000 0 10018968.314 3043042.611 23261805.778 10 0 59641 68400.00000 0 9449812.763 5841569.882 22962111.374 10 0 59641 69300.00000 0 9103568.622 8611809.017 22216520.773 10 0 59641 70200.00000 0 8977056.734 11282691.107 21039432.884 10 0 59641 71100.00000 0 9054607.308 13785869.250 19453630.500 10 0 59641 72000.00000 0 9308826.490 16058346.929 17489845.294 10 0 59641 72900.00000 0 9701872.392 18044893.474 15186167.751 10 0 59641 73800.00000 0 10187187.016 19700146.273 12587312.628 10 0 59641 74700.00000 0 10711611.187 20990312.002 9743753.625 10 0 59641 75600.00000 0 11217793.116 21894395.839 6710743.607 10 0 59641 76500.00000 0 11646788.543 22404907.184 3547239.242 10 0 59641 77400.00000 0 11940741.951 22528012.351 314751.217 10 0 59641 78300.00000 0 12045534.598 22283128.085 -2923857.176 10 0 59641 79200.00000 0 11913286.357 21701973.444 -6105599.040 10 0 59641 80100.00000 0 11504604.352 20827120.575 -9168595.613 10 0 59641 81000.00000 0 10790482.176 19710106.240 -12053285.935 10 0 59641 81900.00000 0 9753768.245 18409184.538 -14703590.164 10 0 59641 82800.00000 0 8390140.317 16986816.382 -17068003.182 10 0 59641 83700.00000 0 6708544.141 15507002.249 -19100596.954 10 0 59641 84600.00000 0 4731076.923 14032571.016 -20761912.092 10 0 59641 85500.00000 0 2492319.840 12622539.235 -22019721.450 10 0 59642 0.00000 0 38147.108 11329651.898 -22849651.421 10 0 59642 900.00000 0 -2575940.593 10198206.922 -23235649.810 10 0 59642 1800.00000 0 -5286885.970 9262255.709 -23170290.909 10 0 59642 2700.00000 0 -8026467.079 8544252.075 -22654914.004 10 0 59642 3600.00000 0 -10723909.249 8054206.891 -21699591.985 10 0 59642 4500.00000 0 -13308610.297 7789382.103 -20322931.575 10 0 59642 5400.00000 0 -15712866.315 7734535.975 -18551709.151 10 0 59642 6300.00000 0 -17874485.499 7862708.276 -16420349.221 10 0 59642 7200.00000 0 -19739182.023 8136511.571 -13970255.540 10 0 59642 8100.00000 0 -21262651.119 8509873.604 -11249007.596 10 0 59642 9000.00000 0 -22412239.695 8930156.855 -8309437.744 10 0 59642 9900.00000 0 -23168143.461 9340565.577 -5208606.764 10 0 59642 10800.00000 0 -23524081.382 9682738.417 -2006697.492 10 0 59642 11700.00000 0 -23487419.916 9899416.935 1234152.039 10 0 59642 12600.00000 0 -23078742.553 9937077.077 4451053.209 10 0 59642 13500.00000 0 -22330883.352 9748412.155 7581585.709 10 0 59642 14400.00000 0 -21287465.588 9294562.140 10565007.020 10 0 59642 15300.00000 0 -20001007.302 8546994.709 13343428.839 10 0 59642 16200.00000 0 -18530673.584 7488958.148 15862937.722 10 0 59642 17100.00000 0 -16939770.035 6116444.114 18074638.398 10 0 59642 18000.00000 0 -15293082.537 4438618.848 19935599.725 10 0 59642 18900.00000 0 -13654174.624 2477703.554 21409685.389 10 0 59642 19800.00000 0 -12082755.288 268307.561 22468253.693 10 0 59642 20700.00000 0 -10632227.017 -2143759.274 23090713.200 10 0 59642 21600.00000 0 -9347516.122 -4703146.993 23264923.839 10 0 59642 22500.00000 0 -8263275.597 -7347031.183 22987435.771 10 0 59642 23400.00000 0 -7402535.302 -10007499.309 22263561.296 10 0 59642 24300.00000 0 -6775855.540 -12614159.815 21107278.077 10 0 59642 25200.00000 0 -6381019.235 -15096866.616 19540964.950 10 0 59642 26100.00000 0 -6203275.454 -17388446.382 17594974.760 10 0 59642 27000.00000 0 -6216123.914 -19427315.635 15307051.669 10 0 59642 27900.00000 0 -6382607.405 -21159878.850 12721603.440 10 0 59642 28800.00000 0 -6657057.566 -22542607.408 9888842.181 10 0 59642 29700.00000 0 -6987220.125 -23543712.413 6863809.806 10 0 59642 30600.00000 0 -7316669.433 -24144341.108 3705306.923 10 0 59642 31500.00000 0 -7587409.618 -24339246.491 474746.206 10 0 59642 32400.00000 0 -7742551.482 -24136901.990 -2765047.019 10 0 59642 33300.00000 0 -7728950.810 -23559056.458 -5951062.996 10 0 59642 34200.00000 0 -7499695.323 -22639748.513 -9021339.733 10 0 59642 35100.00000 0 -7016333.846 -21423822.269 -11916174.350 10 0 59642 36000.00000 0 -6250752.212 -19965007.566 -14579289.228 10 0 59642 36900.00000 0 -5186615.607 -18323646.271 -16958929.572 10 0 59642 37800.00000 0 -3820315.478 -16564160.994 -19008870.726 10 0 59642 38700.00000 0 -2161380.204 -14752373.181 -20689315.589 10 0 59642 39600.00000 0 -232331.545 -12952783.566 -21967664.860 10 0 59642 40500.00000 0 1932007.861 -11225929.158 -22819145.652 10 0 59642 41400.00000 0 4285727.630 -9625927.195 -23227286.889 10 0 59642 42300.00000 0 6773513.265 -8198308.410 -23184232.953 10 0 59642 43200.00000 0 9332730.716 -6978229.359 -22690890.176 10 0 59642 44100.00000 0 11895825.671 -5989137.483 -21756903.895 10 0 59642 45000.00000 0 14392938.276 -5241943.571 -20400466.925 10 0 59642 45900.00000 0 16754625.183 -4734734.871 -18647963.362 10 0 59642 46800.00000 0 18914576.339 -4453039.603 -16533454.604 10 0 59642 47700.00000 0 20812213.997 -4370630.560 -14098017.478 10 0 59642 48600.00000 0 22395066.356 -4450832.977 -11388947.053 10 0 59642 49500.00000 0 23620817.449 -4648280.735 -8458839.308 10 0 59642 50400.00000 0 24458948.230 -4911046.252 -5364571.291 10 0 59642 51300.00000 0 24891900.837 -5183053.642 -2166198.372 10 0 59642 52200.00000 0 24915717.820 -5406672.862 1074210.106 10 0 59642 53100.00000 0 24540130.014 -5525384.905 4293774.061 10 0 59642 54000.00000 0 23788089.833 -5486405.097 7430021.408 10 0 59642 54900.00000 0 22694769.899 -5243153.318 10422098.556 10 0 59642 55800.00000 0 21306069.327 -4757466.404 13211949.042 10 0 59642 56700.00000 0 19676690.468 -4001458.890 15745437.510 10 0 59642 57600.00000 0 17867866.775 -2958952.940 17973397.394 10 0 59642 58500.00000 0 15944836.902 -1626416.514 19852582.198 10 0 59642 59400.00000 0 13974170.495 -13369.256 21346502.339 10 0 59642 60300.00000 0 12021057.102 1857762.163 22426131.769 10 0 59642 61200.00000 0 10146671.048 3952334.566 23070471.016 10 0 59642 62100.00000 0 8405721.690 6224697.353 23266956.107 10 0 59642 63000.00000 0 6844290.717 8619871.306 23011705.538 10 0 59642 63900.00000 0 5498046.196 11075628.612 22309600.440 10 0 59642 64800.00000 0 4390907.366 13524888.949 21174196.060 10 0 59642 65700.00000 0 3534215.460 15898333.058 19627465.721 10 0 59642 66600.00000 0 2926444.882 18127125.848 17699381.508 10 0 59642 67500.00000 0 2553466.423 20145636.183 15427339.009 10 0 59642 68400.00000 0 2389351.135 21894040.225 12855436.453 10 0 59642 69300.00000 0 2397680.731 23320699.518 10033621.584 10 0 59642 70200.00000 0 2533308.861 24384214.173 7016722.398 10 0 59642 71100.00000 0 2744498.431 25055064.764 3863380.326 10 0 59642 72000.00000 0 2975343.975 25316773.594 634906.833 10 0 59642 72900.00000 0 3168375.768 25166536.254 -2605913.918 10 0 59642 73800.00000 0 3267234.466 24615296.663 -5796052.433 10 0 59642 74700.00000 0 3219301.918 23687262.405 -8873466.429 10 0 59642 75600.00000 0 2978175.617 22418880.964 -11778313.780 10 0 59642 76500.00000 0 2505880.885 20857320.277 -14454121.454 10 0 59642 77400.00000 0 1774726.230 19058518.037 -16848886.995 10 0 59642 78300.00000 0 768722.453 17084882.292 -18916090.792 10 0 59642 79200.00000 0 -515495.186 15002740.345 -20615599.374 10 0 59642 80100.00000 0 -2068281.332 12879643.344 -21914442.308 10 0 59642 81000.00000 0 -3867148.320 10781639.586 -22787448.109 10 0 59642 81900.00000 0 -5877481.016 8770630.405 -23217727.419 10 0 59642 82800.00000 0 -8053769.313 6901918.743 -23196994.746 10 0 59642 83700.00000 0 -10341307.396 5222051.980 -22725723.252 10 0 59642 84600.00000 0 -12678289.472 3767047.964 -21813130.126 10 0 59642 85500.00000 0 -14998215.107 2561077.117 -20476993.277 10 0 59643 0.00000 0 -17232504.368 1615654.233 -18743303.284 10 0 59643 900.00000 0 -19313215.592 929371.843 -16645756.348 10 0 59643 1800.00000 0 -21175750.013 488186.059 -14225100.432 10 0 59643 2700.00000 0 -22761435.004 266239.865 -11528343.870 10 0 59643 3600.00000 0 -24019875.547 227189.379 -8607843.785 10 0 59643 4500.00000 0 -24910977.254 325975.752 -5520290.920 10 0 59643 5400.00000 0 -25406556.506 510967.282 -2325610.556 10 0 59643 6300.00000 0 -25491470.563 726380.735 914199.301 10 0 59643 7200.00000 0 -25164220.543 914879.123 4136269.771 10 0 59643 8100.00000 0 -24437002.202 1020235.758 7278079.644 10 0 59643 9000.00000 0 -23335202.508 989951.620 10278666.885 10 0 59643 9900.00000 0 -21896363.224 777715.144 13079809.425 10 0 59643 10800.00000 0 -20168654.946 345600.114 15627152.420 10 0 59643 11700.00000 0 -18208925.397 -334091.559 17871260.250 10 0 59643 12600.00000 0 -16080403.473 -1277420.429 19768573.040 10 0 59643 13500.00000 0 -13850154.692 -2487893.625 21282249.598 10 0 59643 14400.00000 0 -11586393.814 -3956081.996 22382880.821 10 0 59643 15300.00000 0 -9355766.266 -5659787.528 23049060.124 10 0 59643 16200.00000 0 -7220711.014 -7564755.440 23267800.170 10 0 59643 17100.00000 0 -5237014.076 -9625902.721 23034787.981 10 0 59643 18000.00000 0 -3451653.947 -11789013.268 22354473.371 10 0 59643 18900.00000 0 -1901028.020 -13992830.379 21239988.730 10 0 59643 19800.00000 0 -609633.329 -16171460.655 19712901.132 10 0 59643 20700.00000 0 410743.834 -18256989.973 17802800.884 10 0 59643 21600.00000 0 1161296.100 -20182203.154 15546733.708 10 0 59643 22500.00000 0 1655910.287 -21883294.108 12988486.720 10 0 59643 23400.00000 0 1920342.149 -23302453.121 10177741.463 10 0 59643 24300.00000 0 1990885.935 -24390222.758 7169109.927 10 0 59643 25200.00000 0 1912595.409 -25107523.157 4021072.073 10 0 59643 26100.00000 0 1737132.197 -25427261.052 794835.692 10 0 59643 27000.00000 0 1520333.268 -25335454.362 -2446858.828 10 0 59643 27900.00000 0 1319601.478 -24831824.478 -5640964.972 10 0 59643 28800.00000 0 1191230.751 -23929830.967 -8725362.980 10 0 59643 29700.00000 0 1187780.268 -22656147.064 -11640074.356 10 0 59643 30600.00000 0 1355609.989 -21049598.025 -14328433.547 10 0 59643 31500.00000 0 1732682.784 -19159607.248 -16738193.271 10 0 59643 32400.00000 0 2346727.052 -17044215.731 -18822541.668 10 0 59643 33300.00000 0 3213838.179 -14767758.301 -20541011.371 10 0 59643 34200.00000 0 4337578.484 -12398294.315 -21860262.987 10 0 59643 35100.00000 0 5708614.091 -10004900.442 -22754728.220 10 0 59643 36000.00000 0 7304904.549 -7654938.488 -23207100.790 10 0 59643 36900.00000 0 9092437.656 -5411411.994 -23208666.262 10 0 59643 37800.00000 0 11026479.240 -3330521.097 -22759465.125 10 0 59643 38700.00000 0 13053286.138 -1459516.562 -21868286.515 10 0 59643 39600.00000 0 15112211.248 165058.727 -20552493.136 10 0 59643 40500.00000 0 17138113.323 1518668.972 -18837681.015 10 0 59643 41400.00000 0 19063971.399 2589572.675 -16757180.695 10 0 59643 42300.00000 0 20823595.162 3379066.500 -14351409.471 10 0 59643 43200.00000 0 22354318.453 3901177.140 -11667086.970 10 0 59643 44100.00000 0 23599563.731 4181815.543 -8756329.021 10 0 59643 45000.00000 0 24511170.434 4257430.253 -5675637.204 10 0 59643 45900.00000 0 25051389.973 4173217.614 -2484803.467 10 0 59643 46800.00000 0 25194463.926 3980965.167 754249.027 10 0 59643 47700.00000 0 24927719.249 3736619.872 3978666.245 10 0 59643 48600.00000 0 24252134.612 3497684.424 7125881.511 10 0 59643 49500.00000 0 23182353.993 3320552.049 10134827.878 10 0 59643 50400.00000 0 21746146.824 3257892.729 12947120.986 10 0 59643 51300.00000 0 19983337.122 3356201.564 15508189.518 10 0 59643 52200.00000 0 17944246.088 3653613.115 17768331.457 10 0 59643 53100.00000 0 15687713.014 4178074.286 19683675.842 10 0 59643 54000.00000 0 13278776.647 4945953.272 21217031.772 10 0 59643 54900.00000 0 10786113.178 5961143.844 22338608.598 10 0 59643 55800.00000 0 8279337.011 7214703.487 23026593.727 10 0 59643 56700.00000 0 5826275.961 8685041.712 23267577.149 10 0 59643 57600.00000 0 3490333.464 10338651.966 23056814.644 10 0 59643 58500.00000 0 1328046.831 12131357.862 22398324.489 10 0 59643 59400.00000 0 -613057.668 14010023.015 21304815.507 10 0 59643 60300.00000 0 -2296224.310 15914654.367 19797447.346 10 0 59643 61200.00000 0 -3696769.276 17780812.134 17905426.906 10 0 59643 62100.00000 0 -4802870.192 19542226.465 15665448.012 10 0 59643 63000.00000 0 -5615811.441 21133511.881 13120984.294 10 0 59643 63900.00000 0 -6149675.451 22492865.872 10321448.434 10 0 59643 64800.00000 0 -6430493.624 23564638.383 7321233.533 10 0 59643 65700.00000 0 -6494893.265 24301663.828 4178655.028 10 0 59643 66600.00000 0 -6388298.316 24667256.961 954813.865 10 0 59643 67500.00000 0 -6162760.791 24636787.868 -2287596.572 10 0 59643 68400.00000 0 -5874515.580 24198769.055 -5485515.958 10 0 59643 69300.00000 0 -5581363.165 23355408.141 -8576750.170 10 0 59643 70200.00000 0 -5339992.160 22122602.450 -11501187.275 10 0 59643 71100.00000 0 -5203356.126 20529375.339 -14201971.870 10 0 59643 72000.00000 0 -5218216.653 18616777.945 -16626614.231 10 0 59643 72900.00000 0 -5422957.487 16436302.464 -18728012.288 10 0 59643 73800.00000 0 -5845762.777 14047873.646 -20465366.485 10 0 59643 74700.00000 0 -6503236.840 11517502.797 -21804969.830 10 0 59643 75600.00000 0 -7399524.035 8914702.422 -22720858.253 10 0 59643 76500.00000 0 -8525966.110 6309769.304 -23195309.245 10 0 59643 77400.00000 0 -9861311.672 3771049.048 -23219179.765 10 0 59643 78300.00000 0 -11372469.283 1362295.402 -22792077.586 10 0 59643 79200.00000 0 -13015772.918 -859766.619 -21922363.323 10 0 59643 80100.00000 0 -14738707.117 -2847573.408 -20626983.583 10 0 59643 81000.00000 0 -16482020.036 -4564463.857 -18931138.691 10 0 59643 81900.00000 0 -18182136.412 -5985957.801 -16867791.496 10 0 59643 82800.00000 0 -19773769.850 -7100520.005 -14477026.692 10 0 59643 83700.00000 0 -21192625.482 -7909779.392 -11805272.854 10 0 59643 84600.00000 0 -22378080.146 -8428195.878 -8904401.967 10 0 59643 85500.00000 0 -23275727.952 -8682190.134 -5830723.747 99